Location: *
(49.4474°N, 1.6584°E)
Time: 11:09:52
(UTC+00:00)

Daily predictions for brighter satellites

Satellite Brightness Start Highest point End
(mag) Time Altitude Azimuth Time Altitude Azimuth Time Altitude Azimuth
NOSS 3-1 (C) 4.4 19:20:37 10° NW 19:26:56 47° NE 19:34:51 10° ESE
SPOT 5 2.7 19:24:13 10° SSE 19:28:42 90° E 19:33:04 10° NNW
NOSS 3-4 (A) 3.3 19:24:02 10° SW 19:29:20 84° NW 19:35:16 10° NE
NOSS 3-4 (C) 3.3 19:24:33 10° SW 19:29:53 85° NW 19:35:50 10° NE
Cosmos 546 4.5 19:26:44 10° WSW 19:30:24 86° SSE 19:34:04 10° ENE
Cosmos 1656 Rocket 3.8 19:25:28 10° NNW 19:30:54 63° ENE 19:36:23 10° SE
Cosmos 1025 Rocket 3.8 19:27:44 10° N 19:31:38 34° ENE 19:35:32 10° SE
Helios 1A Rocket 2.9 19:29:53 10° NNE 19:32:53 35° E 19:35:50 10° SSE
Cosmos 2242 Rocket 3.6 19:31:24 10° N 19:35:53 80° E 19:40:17 10° SSE
Cosmos 1733 Rocket 3.0 19:32:15 10° S 19:36:35 66° E 19:40:58 10° NNE
CZ-4B R/B 3.7 19:32:49 10° SSE 19:36:36 86° ENE 19:40:31 10° NNW
PAYLOAD B 4.4 19:31:23 10° SSE 19:36:46 60° ENE 19:42:11 10° N
Terra 2.2 19:33:30 10° SE 19:37:58 46° ENE 19:42:28 10° N
BREEZE-M DEB (TANK) 2.0 19:35:37 10° W 19:38:05 83° S 19:43:02 10° ESE
SJ-6B 4.4 19:35:18 10° SSW 19:38:36 33° W 19:41:54 10° NNW
IRAS Rocket 4.3 19:35:43 10° SSE 19:41:13 86° WSW 19:46:44 10° NNW
Resurs 01 Rocket 4.1 19:39:10 10° SSW 19:42:41 23° W 19:46:13 10° NW
Cosmos 1821 Rocket 4.0 19:37:01 10° S 19:43:15 70° E 19:49:36 10° NNE
Cosmos 2237 Rocket 2.5 19:38:28 10° SSW 19:44:09 78° WNW 19:49:54 10° NNE
Meteor 2-15 4.5 19:39:05 10° S 19:45:10 88° E 19:51:20 10° N
Cosmos 1980 4.1 19:40:31 10° SW 19:46:09 71° WNW 19:51:48 10° NNE
Cosmos 2218 Rocket 4.1 19:43:09 10° SSW 19:49:17 82° W 19:55:30 10° N
CSL-04 Rocket 4.1 19:44:24 10° S 19:49:56 69° WSW 19:55:29 10° NNW
Cosmos 1346 Rocket 2.7 19:47:56 10° N 19:51:29 53° ENE 19:55:00 10° SSE
BREEZE-M DEB (TANK) 2.1 19:49:45 10° W 19:52:03 89° NNE 19:56:11 10° E
COSMOS 2455 4.3 19:47:30 10° NNW 19:52:31 26° NNE 19:57:32 10° E
Meteor 2-15 Rocket 4.4 19:46:35 10° S 19:52:38 74° E 19:58:45 10° NNE
Meteor 2-16 Rocket 4.5 19:51:25 10° N 19:57:33 66° ENE 20:03:37 10° SSE
SL-4 R/B 3.6 19:55:40 10° SSE 19:57:33 13° SE 19:57:35 13° SE
Cosmos 1400 Rocket 2.6 19:54:29 10° SSW 19:58:05 84° WNW 20:01:44 10° N
Cosmos 1602 3.5 19:56:32 10° NNE 19:58:34 27° ENE 19:59:37 19° ESE
Cosmos 1812 0.5 19:57:31 10° S 19:59:10 82° W 20:00:51 10° N
Cosmos 1943 Rocket 4.4 19:56:14 10° NW 20:00:34 23° WSW 20:04:51 10° SSW
Meteor 1-31 Rocket 3.4 19:57:49 10° S 20:01:14 49° W 20:04:41 10° NNW
USA 59 Rocket 1.0 19:59:44 10° WNW 20:02:57 36° SW 20:07:05 10° SSE
ASTEX 1 3.9 19:59:48 10° SE 20:04:19 43° ENE 20:09:00 10° N
Cosmos 2297 4.1 20:00:27 10° NNW 20:06:05 54° NE 20:10:44 15° SE
Feng Yun 1-1 Rocket 4.4 20:01:50 10° S 20:07:19 76° WSW 20:12:45 10° NNW
Cosmos 1869 4.1 20:06:01 16° SE 20:08:02 26° E 20:11:04 10° NNE
Cosmos 1315 Rocket 4.3 20:08:55 15° ESE 20:09:42 16° E 20:12:04 10° NE
Cosmos 2369 Rocket 2.3 20:04:57 10° NNW 20:10:30 62° ENE 20:15:00 16° SE
ADEOS 3.6 20:07:06 10° SSE 20:12:19 87° ENE 20:17:35 10° NNW
SL-08 R/B 3.5 20:09:19 10° NNE 20:14:09 55° E 20:18:57 10° S
USA 186 1.9 20:14:08 26° ESE 20:14:44 30° ENE 20:16:52 10° N
Lacrosse 5 rocket 2.8 20:13:53 10° NW 20:16:28 22° N 20:19:03 10° ENE
RESURS DK-1 3.7 20:13:08 10° SW 20:16:55 42° NW 20:20:42 10° NNE
Cosmos 2221 Rocket 3.5 20:14:32 10° N 20:18:57 70° ENE 20:22:40 14° SSE
YAOGAN 11 4.5 20:15:23 10° NNE 20:19:26 41° E 20:23:06 12° SSE
USA 234 3.4 20:13:32 10° ENE 20:19:55 52° SE 20:26:16 10° SSW
Cosmos 2285 Rocket 4.1 20:14:27 10° S 20:20:38 56° ESE 20:26:49 10° NNE
SKYMED 3 4.2 20:18:16 10° NNE 20:22:11 77° ESE 20:26:04 10° S
Cosmos 405 Rocket 3.1 20:21:01 10° N 20:23:40 29° ENE 20:24:26 25° ESE
NOSS 3-1 (A) 4.4 20:20:16 10° NW 20:26:44 50° NE 20:33:20 16° ESE
Cosmos 1943 4.0 20:23:23 13° SSE 20:27:32 30° ESE 20:32:23 10° NE
Cosmos 921 Rocket 4.3 20:24:14 10° N 20:28:02 27° ENE 20:30:06 19° E
Molniya-1 3.3 20:25:39 10° SSW 20:28:17 56° ESE 20:33:57 10° NE
CZ-4B R/B 3.5 20:27:34 23° ESE 20:28:48 29° ENE 20:31:47 10° N
CZ-4B R/B 3.6 20:24:25 10° S 20:30:00 67° WSW 20:35:40 10° NNW
SL-8 R/B 3.7 20:27:25 10° WSW 20:32:04 61° SSE 20:36:05 14° E
SL-08 R/B 4.5 20:26:15 10° N 20:32:29 79° E 20:38:00 14° SSE
Cosmos 1975 Rocket 3.9 20:30:01 10° N 20:34:06 35° ENE 20:35:59 24° ESE
Cosmos 1356 Rocket 4.5 20:36:34 23° ESE 20:37:07 24° E 20:40:22 10° NE
ERS-1 Rocket 3.9 20:35:03 10° S 20:39:50 46° W 20:44:40 10° NNW
Cosmos 2263 4.2 20:36:00 10° NNW 20:41:41 80° ENE 20:45:14 24° SE
Cosmos 2292 Rocket 4.2 20:39:58 10° NNW 20:44:07 46° W 20:47:05 13° SSW
CZ-2C R/B 3.4 20:44:39 25° ENE 20:44:42 25° ENE 20:47:08 10° N
Okean-O 2.6 20:44:32 20° S 20:47:30 80° WSW 20:51:54 10° NNW
Cosmos 2298 Rocket 4.0 20:44:12 10° SSW 20:49:30 88° ESE 20:54:52 10° NNE
Cosmos 44 3.7 20:45:43 10° SW 20:50:49 75° NW 20:56:12 10° NE
Cosmos 1908 Rocket 3.7 20:46:36 10° SSW 20:50:54 71° W 20:55:13 10° N
Okean O Rocket 1.9 20:53:05 20° S 20:55:59 63° WSW 21:00:17 10° NNW
CZ-4B R/B 3.4 20:55:25 31° SE 20:57:36 62° ENE 21:02:17 10° N
CZ-4 R/B 4.0 20:57:20 10° WSW 20:59:21 14° W 21:01:21 10° WNW
Ariane Rocket 3.2 20:57:13 30° SE 20:59:29 56° ENE 21:04:26 10° N
SL-16 R/B 2.5 20:54:35 10° SW 21:00:13 70° WNW 21:05:56 10° NNE
Geosat 3.9 20:55:39 10° NNE 21:00:41 86° ESE 21:05:42 10° SSW
Cosmos 1782 Rocket 3.4 20:58:38 25° S 21:01:05 77° E 21:05:24 10° NNE
Cosmos 1934 Rocket 4.0 20:55:49 10° S 21:02:05 85° W 21:08:18 10° N
Spot 2 Rocket 4.1 21:03:19 17° S 21:07:00 53° W 21:11:56 10° NNW
USA 245 4.0 21:05:18 30° SSE 21:07:49 89° W 21:13:27 10° NNW
Cosmos 1269 Rocket 4.0 21:02:41 10° NNW 21:08:00 83° ENE 21:10:20 34° SSE
ATLAS 5 CENTAUR R/B 2.7 21:05:31 10° NNW 21:09:07 33° NE 21:11:03 23° E
Cosmos 1140 Rocket 3.4 21:05:23 10° NNW 21:10:33 88° W 21:12:46 35° SSE
Terra 3.8 21:11:55 10° SSW 21:15:43 24° W 21:19:32 10° NW
NOSS 3-1 (C) 4.2 21:11:09 10° NW 21:18:07 63° SW 21:23:02 27° SSE
Cosmos 1862 2.8 21:19:02 10° N 21:22:39 84° E 21:22:56 74° SSE
Cosmos 1447 Rocket 4.4 21:18:43 10° N 21:25:00 75° E 21:27:42 36° SSE
Cosmos 2058 2.6 21:23:05 10° N 21:27:01 84° E 21:27:31 67° SSE
Cosmos 407 Rocket 3.5 21:22:24 10° NNW 21:27:31 66° ENE 21:28:57 45° SE
Cosmos 1300 Rocket 4.4 21:25:04 15° SSW 21:28:23 47° WNW 21:32:34 10° N
Cosmos 1174 3.9 21:27:38 10° NW 21:30:21 45° W 21:30:21 45° W
Cosmos 371 Rocket 3.5 21:27:25 10° NNW 21:32:13 58° ENE 21:33:16 47° ESE
SL-4 R/B 4.0 21:30:30 10° SW 21:31:15 15° SW 21:31:15 15° SW
ATLAS 2AS CENTAUR R/B 4.4 21:38:07 15° E 21:38:07 15° E 21:40:17 10° ENE
COSMOS 2455 2.8 21:33:12 10° NW 21:39:16 88° NE 21:41:17 44° SE
SJ 16-02 1.7 21:36:05 10° NNW 21:40:13 46° ENE 21:40:32 45° ENE
Cosmos 2251 Rocket 4.1 21:36:58 10° NNW 21:42:07 46° ENE 21:43:27 38° E
Cosmos 1315 Rocket 3.7 21:43:33 30° WSW 21:44:54 43° WNW 21:48:31 10° N
Cosmos 1536 Rocket 3.9 21:41:16 10° N 21:45:27 48° ENE 21:45:30 48° ENE
Gbstr 26 Del rocket 3.9 21:45:30 10° SW 21:48:40 36° SW 21:48:40 36° SW
SPOT 3 Rocket 4.3 21:48:49 29° SSW 21:50:59 45° W 21:55:58 10° NNW
Cosmos 1605 Rocket 4.3 21:47:33 21° SSW 21:51:41 64° WNW 21:57:50 10° N
Lacrosse 5 rocket 1.8 21:50:25 10° NW 21:52:47 42° NNW 21:52:47 42° NNW
Cosmos 2369 Rocket 3.9 21:49:38 10° NW 21:54:03 24° WSW 21:56:46 17° SW
SeaSat 1 3.4 21:56:42 31° E 21:57:59 36° NE 22:02:27 10° NNW
USA 234 3.5 21:56:36 10° ENE 22:03:06 69° NNW 22:09:36 10° WSW
Cosmos 1697 Rocket 4.1 21:58:21 10° NNW 22:03:15 29° NE 22:05:25 23° E
Cosmos 2173 Rocket 4.0 22:03:21 52° SE 22:04:34 63° E 22:10:36 10° NNE
Cosmos 921 Rocket 4.0 22:02:08 10° NW 22:06:12 38° WSW 22:06:41 36° WSW
Helios 1B rocket 3.2 22:09:10 38° NNE 22:09:10 38° NNE 22:11:40 10° N
Cosmos 1603 3.6 22:07:59 54° S 22:09:19 79° ESE 22:15:02 10° NNE
Cosmos 1943 3.9 22:05:43 10° SW 22:11:16 54° NW 22:16:51 10° NNE
Meteor 2-3 Rocket 3.6 22:07:35 10° N 22:13:13 75° ENE 22:14:03 62° SE
SL-8 R/B 3.6 22:09:31 10° W 22:13:50 72° WSW 22:13:50 72° WSW
Cosmos 2151 Rocket 3.5 22:17:04 76° NNE 22:17:04 76° NNE 22:21:09 10° N
Okean 1 Rocket 3.6 22:17:47 49° NE 22:17:47 49° NE 22:21:18 10° NNE
NOSS 3-1 (A) 4.2 22:10:54 10° NW 22:17:55 59° SW 22:20:42 42° S
Helios 1A 3.4 22:18:58 10° NNE 22:22:03 52° NNE 22:22:03 52° NNE
Cosmos 1980 Rocket 4.1 22:19:13 10° N 22:23:40 23° NE 22:26:39 15° E
Okean 2 Rocket 3.2 22:24:29 66° NE 22:24:29 66° NE 22:28:26 10° NNE
Cosmos 304 Rocket 4.3 22:20:46 10° NW 22:25:18 45° WSW 22:25:28 45° WSW
Cosmos 968 Rocket 4.3 22:21:38 10° NNW 22:26:32 39° ENE 22:27:16 37° ENE
Cosmos 1190 Rocket 3.8 22:21:47 10° NNW 22:27:07 89° WSW 22:27:28 79° SSE
Cosmos 1455 Rocket 4.2 22:28:48 33° ENE 22:28:48 33° ENE 22:31:50 10° NNE
Cosmos 2100 Rocket 3.9 22:26:44 55° SSW 22:28:12 88° W 22:34:27 10° N
Tsikada Rocket 4.3 22:25:02 10° N 22:31:10 52° ENE 22:32:10 48° ESE
Cosmos 2061 Rocket 4.5 22:35:46 42° E 22:36:08 42° E 22:41:55 10° NNE
Cosmos 972 Rocket 4.5 22:35:51 61° SE 22:36:31 65° ESE 22:43:15 10° NNE
Cosmos 2360 4.0 22:35:56 10° NNW 22:41:40 81° WSW 22:42:06 75° S
Cosmos 1656 3.6 22:38:43 10° NNW 22:44:09 68° WSW 22:44:20 67° SW
Cosmos 332 Rocket 3.8 22:45:40 10° NNW 22:50:07 73° N 22:50:07 73° N
ATLAS 3B R/B 3.6 22:43:38 10° NW 22:51:18 51° NE 22:55:41 25° E
ATLAS 5 CENTAUR R/B 2.6 22:47:14 10° NW 22:50:11 39° W 22:50:11 39° W
Cosmos 1864 Rocket 4.5 22:52:25 62° SSW 22:53:34 83° W 22:59:59 10° N
Cosmos 1420 Rocket 4.3 22:54:22 57° WSW 22:55:06 64° WNW 23:00:23 10° NNE
Cosmos 1954 Rocket 4.2 22:52:17 10° NNW 22:57:15 61° W 22:57:15 61° W
Aureole 3 Rocket 4.2 22:58:44 46° E 22:58:44 46° E 23:04:38 10° NNE
Cosmos 1833 Rocket 3.2 23:01:17 47° E 23:01:17 47° E 23:05:53 10° NE
Cosmos 676 Rocket 4.0 22:55:51 10° NNW 23:00:56 75° W 23:00:56 75° W
Cosmos 2082 Rocket 4.5 23:02:51 11° E 23:02:51 11° E 23:03:45 10° ENE
ALOS 2 3.1 23:03:31 56° NNE 23:03:31 56° NNE 23:07:08 10° N
Sich 1 Rocket 4.2 23:03:46 51° NW 23:03:46 51° NW 23:07:35 10° N
BREEZE-M R/B 4.3 22:54:00 10° W 23:03:35 85° N 23:09:15 10° E
SL-08 R/B 4.3 23:03:25 73° S 23:04:04 87° E 23:10:22 10° N
Cosmos 1818 4.0 22:59:03 10° NW 23:03:51 50° WSW 23:03:51 50° WSW
Spot 4 4.0 23:08:14 71° NNW 23:08:14 71° NNW 23:12:29 10° NNW
ARIANE 5 R/B 3.1 23:10:04 56° NNW 23:10:04 56° NNW 23:13:34 10° NNW
Meteor 2-12 Rocket 4.2 23:03:27 10° N 23:09:32 84° W 23:10:02 76° SSW
CZ-2C R/B 4.3 23:05:10 10° NNE 23:09:16 31° E 23:09:16 31° E
Cosmos 1725 Rocket 4.1 23:08:51 58° SW 23:10:00 71° WNW 23:16:19 10° N
DEBRIS 4.1 23:14:40 51° WSW 23:16:06 83° SSE 23:31:29 10° E
Cosmos 2228 4.0 23:18:31 42° NNE 23:18:31 42° NNE 23:21:22 10° NNE
ARIANE 6 FM1 Upper Stage 4.0 23:13:35 10° NW 23:16:01 35° NW 23:16:01 35° NW
USA 229 DEB 4.0 23:10:17 10° NW 23:17:42 77° NE 23:20:33 44° ESE
USA 229 4.0 23:10:21 10° NW 23:17:45 76° NE 23:20:40 44° ESE
SJ 16-02 3.4 23:14:48 10° NW 23:17:01 19° W 23:17:01 19° W
Cosmos 2233 Rocket 3.9 23:18:32 72° SSW 23:19:14 84° W 23:25:32 10° N
Cosmos 1850 Rocket 4.1 23:15:06 10° NNW 23:20:06 66° NE 23:20:06 66° NE
Cosmos 2056 Rocket 3.7 23:20:45 67° W 23:21:00 68° WNW 23:26:26 10° NNE
ATLAS 2AS CENTAUR R/B 2.5 23:25:29 69° SSE 23:26:02 72° SE 23:32:50 10° NE
Cosmos 1331 Rocket 4.5 23:27:28 51° ENE 23:27:28 51° ENE 23:31:47 10° NNE
Cosmos 1624 Rocket 4.2 23:28:33 61° WNW 23:28:40 61° WNW 23:33:49 10° NNE
CZ-2C R/B 3.2 23:29:07 48° E 23:29:34 49° ENE 23:34:46 10° N
Cosmos 292 Rocket 4.2 23:25:46 10° NNW 23:29:43 59° NW 23:29:43 59° NW
SeaSat 1 3.4 23:36:18 38° W 23:36:18 38° W 23:39:58 10° NW
Cosmos 1626 Rocket 4.4 23:32:48 10° N 23:35:57 48° N 23:35:57 48° N
Nadezhda 4 Rocket 4.4 23:36:15 10° N 23:42:15 51° ENE 23:43:04 48° E
ACS3 Solar Sail 3.4 23:39:35 10° NE 23:43:52 20° E 23:44:47 19° E
Cosmos 1110 Rocket 4.1 23:44:35 72° NE 23:44:35 72° NE 23:49:24 10° NNE
USA 234 4.2 23:39:28 10° ENE 23:45:39 47° N 23:51:51 10° WNW
Cosmos 1697 Rocket 2.9 23:42:02 10° NW 23:47:06 60° W 23:47:06 60° W
Cosmos 2151 4.0 23:49:48 10° N 23:52:40 43° N 23:52:40 43° N
